Le nostre stazioni meteo in Italia

Pubblicità
Il mio iltempo24.it
St-Etienne Boutheon, Francia (7475): Temperatura & dewpoint: 11.01.2020 19:00:00 - 17.01.2020 19:00:00 (CET)St-Etienne Boutheon, Francia (7475): Temperatura 5cm: 11.01.2020 19:00:00 - 17.01.2020 19:00:00 (CET)St-Etienne Boutheon, Francia (7475): Temperatura -20cm & Temperatura -100cm: 11.01.2020 19:00:00 - 17.01.2020 19:00:00 (CET)St-Etienne Boutheon, Francia (7475): velocità del vento & gusts: 11.01.2020 19:00:00 - 17.01.2020 19:00:00 (CET)St-Etienne Boutheon, Francia (7475): direzione del vento: 11.01.2020 19:00:00 - 17.01.2020 19:00:00 (CET)St-Etienne Boutheon, Francia (7475): reduced air pressure: 11.01.2020 19:00:00 - 17.01.2020 19:00:00 (CET)St-Etienne Boutheon, Francia (7475): visibility: 11.01.2020 19:00:00 - 17.01.2020 19:00:00 (CET)St-Etienne Boutheon, Francia (7475): ore di luce: 11.01.2020 19:00:00 - 17.01.2020 19:00:00 (CET)St-Etienne Boutheon, Francia (7475): precipitazioni: 11.01.2020 19:00:00 - 17.01.2020 19:00:00 (CET)
Data & Tempo tt [°C] td [°C] tt 5cm [°C] tt -20cm [°C] tt -100cm [°C] ff [km/h] ff [kn] fx [km/h] fx [kn] dd ppp [hPa] vv [km] sd [min] rr [mm]
17.01.2020 19:00:00 5,9 3,7 4,1 7,0 8,3 2 1 13 7 ONO 1026,4 55 0 0,0
17.01.2020 18:00:00 6,1 3,6 4,8 7,0 8,3 11 6 26 14 N 1025,0 60 0 0,2
17.01.2020 17:00:00 6,4 4,7 5,6 6,9 8,3 10 5 38 20 N 1024,8 21 0 1,6
17.01.2020 16:00:00 8,4 5,7 7,1 6,9 8,3 11 6 29 16 NNO 1023,2 10 0 1,0
17.01.2020 15:00:00 10,4 4,3 10,2 6,7 8,3 9 5 16 9 SSO 1021,8 60 0 0,0
17.01.2020 14:00:00 10,6 4,1 9,7 6,7 8,3 8 4 23 12 SSO 1022,0 60 0 0,0
17.01.2020 13:00:00 10,6 3,6 10,4 6,5 8,3 9 5 31 17 SO 1022,5 52 0 0,0
17.01.2020 12:00:00 10,2 6,3 9,7 6,4 8,3 18 10 34 18 SSO 1023,0 55 0 0,0
17.01.2020 11:00:00 10,0 6,0 9,3 6,4 8,3 9 5 28 15 S 1022,9 60 0 0,0
17.01.2020 10:00:00 10,0 5,4 9,0 6,4 8,3 10 5 26 14 S 1022,7 52 0 0,0
17.01.2020 09:00:00 10,2 5,2 7,8 6,3 8,3 16 9 23 13 SSE 1022,7 60 0 0,0
17.01.2020 08:00:00 9,5 4,7 7,8 6,4 8,2 6 3 25 13 S 1023,0 60 0 0,0
17.01.2020 07:00:00 9,1 4,7 7,4 6,4 8,2 17 9 34 18 SSE 1022,9 60 0 0,0
17.01.2020 06:00:00 9,1 4,7 6,2 6,4 8,2 20 11 32 17 S 1022,6 60 0 0,0
17.01.2020 05:00:00 8,0 4,4 5,5 6,5 8,2 16 9 26 14 SSE 1022,6 60 0 0,0
17.01.2020 04:00:00 7,3 4,4 3,6 6,6 8,3 15 8 22 12 SSE 1023,4 60 0 0,0
17.01.2020 03:00:00 8,8 4,8 7,0 6,6 8,2 9 5 26 14 S 1023,8 60 0 0,0
17.01.2020 02:00:00 10,6 4,9 5,7 6,7 8,2 19 10 36 19 S 1023,2 60 0 0,0
17.01.2020 01:00:00 7,7 3,7 3,8 6,8 8,3 15 8 30 16 S 1023,4 60 0 0,0
17.01.2020 00:00:00 8,9 3,9 6,7 6,8 8,3 20 11 33 18 SSE 1023,7 60 0 0,0
16.01.2020 23:00:00 9,1 4,1 7,4 6,9 8,2 21 12 41 22 S 1024,3 60 0 0,0
16.01.2020 22:00:00 9,8 4,8 5,7 7,0 8,2 27 15 52 28 S 1024,9 60 0 0,0
16.01.2020 21:00:00 7,7 4,5 5,6 7,0 8,2 14 8 18 10 S 1025,6 60 0 0,0
16.01.2020 20:00:00 9,4 4,8 7,2 7,1 8,2 14 8 30 16 S 1025,9 60 0 0,0
16.01.2020 19:00:00 9,4 4,4 5,6 7,1 8,2 22 12 34 19 S 1026,0 60 0 0,0
16.01.2020 18:00:00 7,6 3,3 4,7 7,1 8,2 15 8 29 15 S 1026,0 60 0 0,0
16.01.2020 17:00:00 10,9 3,9 9,9 6,9 8,2 22 12 37 20 S 1025,4 48 57 0,0
16.01.2020 16:00:00 13,3 4,7 14,9 6,6 8,2 24 13 34 18 S 1024,6 37 60 0,0
16.01.2020 15:00:00 13,6 5,7 16,8 6,3 8,2 13 7 20 11 SSE 1024,2 38 60 0,0
16.01.2020 14:00:00 13,0 5,6 16,1 6,0 8,2 13 7 20 11 SSE 1025,0 35 60 0,0
16.01.2020 13:00:00 12,3 5,7 15,1 5,7 8,2 12 7 22 12 SSE 1025,9 19 60 0,0
16.01.2020 12:00:00 11,3 5,0 12,9 5,5 8,2 11 6 22 12 SSE 1026,6 33 60 0,0
16.01.2020 11:00:00 9,4 4,6 10,3 5,5 8,2 11 6 23 12 SSE 1027,8 44 60 0,0
16.01.2020 10:00:00 7,1 3,9 5,1 5,6 8,2 11 6 23 12 SSE 1028,3 37 60 0,0
16.01.2020 09:00:00 4,0 3,3 0,1 5,7 8,2 13 7 22 12 S 1028,6 33 16 0,0
16.01.2020 08:00:00 1,8 1,1 -0,8 5,8 8,2 11 6 15 8 SE 1028,8 20 0 0,0
16.01.2020 07:00:00 3,1 2,1 0,0 5,9 8,2 10 5 14 8 S 1028,6 32 0 0,0
16.01.2020 06:00:00 3,8 2,3 0,6 6,1 8,2 11 6 17 9 SSE 1028,1 41 0 0,0
16.01.2020 05:00:00 4,8 3,3 0,2 6,2 8,2 11 6 15 8 S 1028,3 52 0 0,0
16.01.2020 04:00:00 3,7 1,7 1,3 6,2 8,2 13 7 21 11 SSE 1028,6 58 0 0,0
16.01.2020 03:00:00 7,1 4,1 5,0 6,3 8,2 16 9 23 12 SSE 1027,9 60 0 0,0
16.01.2020 02:00:00 6,4 4,6 3,8 6,4 8,2 13 7 19 10 S 1028,1 42 0 0,0
16.01.2020 01:00:00 5,0 3,3 2,2 6,6 8,2 11 6 14 8 S 1028,4 43 0 0,0
16.01.2020 00:00:00 5,6 2,9 -0,2 6,7 8,2 10 5 13 7 S 1028,2 53 0 0,0
15.01.2020 23:00:00 6,0 3,2 0,1 6,9 8,2 8 4 17 9 SSE 1028,0 54 0 0,0
15.01.2020 22:00:00 3,6 2,4 -0,3 7,0 8,2 6 4 12 7 ESE 1028,1 42 0 0,0
15.01.2020 21:00:00 4,6 1,1 1,2 7,2 8,2 6 3 14 8 SSE 1027,5 59 0 0,0
15.01.2020 20:00:00 8,9 2,9 4,4 7,3 8,2 8 5 26 14 SSO 1026,0 60 0 0,0
15.01.2020 19:00:00 8,0 2,7 5,8 7,4 8,2 17 9 35 19 S 1025,4 60 0 0,0
15.01.2020 18:00:00 9,8 2,9 7,8 7,4 8,2 23 12 36 19 S 1024,2 60 0 0,0
15.01.2020 17:00:00 11,4 3,4 10,3 7,2 8,2 27 14 55 30 S 1023,3 43 57 0,0
15.01.2020 16:00:00 12,7 2,5 13,8 7,1 8,2 34 18 53 29 S 1022,2 37 60 0,0
15.01.2020 15:00:00 12,9 3,8 14,3 6,8 8,2 37 20 57 31 S 1021,3 38 60 0,0
15.01.2020 14:00:00 13,3 3,6 13,8 6,6 8,2 30 16 54 29 S 1022,2 43 56 0,0
15.01.2020 13:00:00 13,2 3,8 12,9 6,4 8,2 31 17 63 34 S 1022,0 50 21 0,0
15.01.2020 12:00:00 12,6 3,8 12,5 6,2 8,2 35 19 60 32 S 1021,6 57 14 0,0
15.01.2020 11:00:00 12,0 3,2 11,0 6,1 8,2 25 13 49 26 S 1021,7 47 23 0,0
15.01.2020 10:00:00 11,0 4,0 10,3 6,1 8,2 27 15 48 26 S 1021,1 60 0 0,0
15.01.2020 09:00:00 10,7 3,9 9,2 6,1 8,2 24 13 48 26 SSO 1020,2 60 0 0,0
15.01.2020 08:00:00 9,8 2,9 7,9 6,0 8,2 19 10 54 29 S 1019,9 60 0 0,0
15.01.2020 07:00:00 9,6 2,2 8,4 6,1 8,2 32 17 56 30 S 1019,6 60 0 0,0
15.01.2020 06:00:00 10,0 3,5 7,6 6,1 8,2 32 17 55 30 S 1018,9 60 0 0,0
15.01.2020 05:00:00 8,7 3,1 6,7 6,1 8,2 19 10 48 26 S 1018,9 60 0 0,0
15.01.2020 04:00:00 9,7 3,0 8,0 6,1 8,2 29 15 51 27 S 1019,1 60 0 0,0
15.01.2020 03:00:00 9,4 3,6 7,8 6,1 8,2 28 15 54 29 S 1019,1 60 0 0,0
15.01.2020 02:00:00 9,2 3,0 8,1 6,2 8,2 27 15 65 35 S 1019,3 60 0 0,0
15.01.2020 01:00:00 9,9 4,3 7,7 6,2 8,2 37 20 56 30 S 1019,3 60 0 0,0
15.01.2020 00:00:00 9,7 3,0 8,0 6,2 8,2 31 17 49 27 S 1019,2 60 0 0,0
14.01.2020 23:00:00 9,5 3,5 8,0 6,3 8,2 25 14 42 23 SSO 1019,4 60 0 0,0
14.01.2020 22:00:00 9,8 3,3 8,1 6,3 8,2 22 12 45 25 SSO 1019,3 56 0 0,0
14.01.2020 21:00:00 9,6 4,2 7,2 6,4 8,2 27 15 44 24 S 1019,3 58 0 0,0
14.01.2020 20:00:00 9,0 3,8 6,4 6,4 8,2 22 12 38 21 S 1019,6 59 0 0,0
14.01.2020 19:00:00 9,0 3,6 7,2 6,5 8,2 20 11 38 20 S 1019,5 59 0 0,0
14.01.2020 18:00:00 9,4 3,1 7,6 6,4 8,2 24 13 37 20 S 1019,5 60 0 0,0
14.01.2020 17:00:00 9,9 3,2 9,0 6,3 8,2 26 14 44 24 S 1019,2 60 45 0,0
14.01.2020 16:00:00 10,7 3,7 10,2 6,0 8,2 29 16 49 26 S 1018,6 56 2 0,0
14.01.2020 15:00:00 11,7 3,9 12,0 5,7 8,2 31 17 52 28 S 1018,5 48 42 0,0
14.01.2020 14:00:00 13,6 4,5 14,8 5,4 8,2 31 17 55 30 S 1018,2 45 60 0,0
14.01.2020 13:00:00 13,3 4,2 12,6 5,1 8,2 29 15 49 27 SSO 1018,4 52 44 0,0
14.01.2020 12:00:00 12,4 4,6 13,7 4,8 8,2 27 15 61 33 S 1019,1 59 60 0,0
14.01.2020 11:00:00 11,0 3,5 11,8 4,8 8,2 14 8 29 15 SSO 1019,9 60 60 0,0
14.01.2020 10:00:00 9,1 3,7 7,4 4,8 8,2 14 7 26 14 S 1019,7 51 56 0,0
14.01.2020 09:00:00 7,1 2,2 2,4 4,8 8,2 16 9 22 12 SSO 1019,6 55 14 0,0
14.01.2020 08:00:00 5,7 0,6 3,0 4,9 8,2 14 7 36 19 SSE 1019,5 47 0 0,0
14.01.2020 07:00:00 6,1 1,2 1,6 4,9 8,2 14 8 23 12 S 1019,2 60 0 0,0
14.01.2020 06:00:00 6,4 0,5 2,4 5,0 8,3 8 4 33 18 ESE 1019,1 60 0 0,0
14.01.2020 05:00:00 7,5 0,5 4,1 5,0 8,3 18 10 34 19 SO 1018,4 60 0 0,0
14.01.2020 04:00:00 6,4 -0,4 3,5 5,0 8,2 9 5 28 15 S 1018,7 60 0 0,0
14.01.2020 03:00:00 6,5 0,0 2,7 5,1 8,3 10 6 18 10 SE 1018,8 60 0 0,0
14.01.2020 02:00:00 5,2 0,6 3,5 5,1 8,3 5 3 24 13 OSO 1019,7 51 0 0,0
14.01.2020 01:00:00 6,4 0,7 4,8 5,2 8,3 10 5 25 13 SO 1019,7 44 0 0,0
14.01.2020 00:00:00 6,4 0,7 4,3 5,3 8,3 13 7 22 12 SO 1019,9 48 0 0,0
13.01.2020 23:00:00 6,8 0,5 4,8 5,5 8,3 14 8 26 14 SSO 1019,2 49 0 0,0
13.01.2020 22:00:00 6,9 -0,6 4,3 5,6 8,3 13 7 27 14 SSO 1018,9 59 0 0,0
13.01.2020 21:00:00 7,2 -3,4 -0,6 5,7 8,3 14 8 31 17 SSO 1019,2 60 0 0,0
13.01.2020 20:00:00 3,4 -2,2 -1,5 5,9 8,3 7 4 12 6 SSE 1020,4 60 0 0,0
13.01.2020 19:00:00 4,4 0,4 -1,3 5,9 8,3 4 2 11 6 SSE 1020,6 34 0 0,0
13.01.2020 18:00:00 5,2 3,0 3,0 5,9 8,3 10 5 22 12 S 1020,2 15 0 0,0
13.01.2020 17:00:00 6,8 3,8 5,7 5,8 8,3 16 9 23 13 SSE 1020,0 18 45 0,0
13.01.2020 16:00:00 9,2 4,8 11,7 5,5 8,3 14 7 23 13 S 1019,5 17 60 0,0
13.01.2020 15:00:00 10,1 5,3 9,1 5,2 8,3 17 9 22 12 S 1019,9 21 36 0,0
13.01.2020 14:00:00 9,8 4,8 10,7 4,9 8,3 11 6 16 9 S 1021,1 37 46 0,0
13.01.2020 13:00:00 8,4 4,2 9,7 4,7 8,3 10 5 19 11 SSE 1022,6 38 25 0,0
13.01.2020 12:00:00 7,4 4,0 8,9 4,5 8,4 10 5 20 11 SSE 1024,1 53 34 0,0
13.01.2020 11:00:00 6,7 3,7 7,4 4,3 8,3 14 8 19 10 S 1024,8 36 44 0,0
13.01.2020 10:00:00 5,2 1,9 3,1 4,3 8,4 3 2 9 5 SO 1025,8 17 32 0,0
13.01.2020 09:00:00 2,3 1,1 1,9 4,3 8,4 0 0 3 2 N 1026,4 11 0 0,0
13.01.2020 08:00:00 1,8 0,6 1,5 4,3 8,4 3 2 7 4 NO 1026,7 10 0 0,0
13.01.2020 07:00:00 1,3 0,1 0,1 4,4 8,3 0 0 4 2 N 1026,9 19 0 0,0
13.01.2020 06:00:00 0,3 -0,6 -0,5 4,5 8,4 3 2 5 3 NNE 1027,4 15 0 0,0
13.01.2020 05:00:00 -0,1 -0,7 -1,5 4,6 8,4 2 1 7 4 ESE 1028,1 12 0 0,0
13.01.2020 04:00:00 -2,0 -2,7 -5,8 4,7 8,4 4 2 7 4 S 1029,1 12 0 0,0
13.01.2020 03:00:00 -2,0 -3,0 -5,1 4,8 8,4 4 2 5 3 NNE 1029,6 9 0 0,0
13.01.2020 02:00:00 -1,3 -2,3 -3,9 4,9 8,4 3 2 4 2 NNE 1029,6 11 0 0,0
13.01.2020 01:00:00 -2,1 -2,9 -4,8 5,0 8,4 4 2 7 4 ENE 1030,4 8 0 0,0
13.01.2020 00:00:00 -1,9 -3,0 -5,2 5,2 8,4 3 2 6 3 S 1030,9 11 0 0,0
12.01.2020 23:00:00 -1,7 -2,7 -5,2 5,4 8,4 3 1 4 2 NE 1031,3 10 0 0,0
12.01.2020 22:00:00 -1,2 -2,6 -4,1 5,5 8,4 3 2 8 4 S 1031,4 15 0 0,0
12.01.2020 21:00:00 -1,2 -2,5 -4,1 5,7 8,4 7 4 9 5 S 1031,7 16 0 0,0
12.01.2020 20:00:00 -0,1 -1,7 -3,5 5,9 8,4 3 2 8 4 ESE 1031,9 25 0 0,0
12.01.2020 19:00:00 1,1 -1,1 -3,4 5,9 8,4 4 2 6 3 SSE 1031,4 33 0 0,0
12.01.2020 18:00:00 3,5 -0,7 -1,1 5,9 8,4 0 0 8 5 N 1030,6 19 0 0,0
12.01.2020 17:00:00 5,6 -1,1 4,8 5,8 8,4 6 3 9 5 NO 1029,9 39 41 0,0
12.01.2020 16:00:00 7,8 -0,7 12,5 5,5 8,4 2 1 8 4 N 1029,4 47 60 0,0
12.01.2020 15:00:00 8,4 -1,2 11,0 5,2 8,4 2 1 10 5 O 1029,4 20 60 0,0
12.01.2020 14:00:00 6,2 -1,5 10,9 4,9 8,4 6 3 11 6 ONO 1030,6 15 60 0,0
12.01.2020 13:00:00 5,9 -0,8 10,0 4,8 8,4 3 1 12 7 SO 1031,4 42 60 0,0
12.01.2020 12:00:00 3,6 -1,6 8,2 4,8 8,4 5 3 13 7 NO 1032,5 34 60 0,0
12.01.2020 11:00:00 3,4 -2,0 4,5 5,0 8,4 3 2 11 6 SO 1032,5 33 60 0,0
12.01.2020 10:00:00 1,5 -1,6 -0,2 5,1 8,4 6 3 12 6 S 1032,6 20 60 0,0
12.01.2020 09:00:00 -0,7 -2,3 -8,0 5,3 8,4 3 2 13 7 SO 1032,5 20 13 0,0
12.01.2020 08:00:00 -4,6 -5,8 -8,1 5,5 8,4 10 5 12 6 S 1032,8 11 0 0,0
12.01.2020 07:00:00 -2,0 -2,8 -6,8 5,7 8,4 7 4 10 5 S 1032,2 13 0 0,0
12.01.2020 06:00:00 -2,2 -3,2 -6,4 5,9 8,4 7 4 11 6 SSE 1031,9 11 0 0,0
12.01.2020 05:00:00 -2,1 -3,1 -6,0 6,0 8,3 7 4 10 6 SE 1032,3 14 0 0,0
12.01.2020 04:00:00 -0,5 -2,7 -3,5 6,2 8,3 8 5 14 8 S 1032,3 20 0 0,0
12.01.2020 03:00:00 1,4 -1,0 -0,1 6,4 8,4 11 6 22 12 S 1032,1 22 0 0,0
12.01.2020 02:00:00 2,3 -0,8 1,5 6,4 8,3 11 6 19 10 S 1031,9 25 0 0,0
12.01.2020 01:00:00 3,2 -0,6 2,7 6,5 8,3 8 4 17 9 SSO 1032,3 30 0 0,0
12.01.2020 00:00:00 3,6 -0,2 3,1 6,6 8,3 7 4 15 8 SSO 1032,6 32 0 0,0
11.01.2020 23:00:00 3,7 -0,1 3,3 6,6 8,3 6 3 11 6 S 1032,6 33 0 0,0
11.01.2020 22:00:00 4,0 0,0 3,6 6,7 8,3 6 4 10 5 SO 1032,7 34 0 0,0
11.01.2020 21:00:00 4,1 -0,1 3,7 6,8 8,3 4 2 11 6 NNO 1032,9 30 0 0,0
11.01.2020 20:00:00 4,4 0,4 4,0 6,8 8,3 6 3 11 6 SO 1033,0 33 0 0,0
11.01.2020 19:00:00 4,5 0,3 4,0 6,8 8,3 4 2 15 8 ONO 1033,1 34 0 0,0

tt = Temperatura
td = dewpoint
tt 5cm = Temperatura 5cm
tt -20cm = Temperatura -20cm
tt -100cm = Temperatura -100cm
ff = velocità del vento
fx = gusts
dd = direzione del vento
ppp = reduced air pressure
vv = visibility
sd = ore di luce
rr = precipitazioni

Stazioni seguenti

WeatherPro
AMSI
MeteoEarth